sat.trackr.live / text

‹ back to catalog

STARLINK-31419

NORAD 59368 · 2024-060W

PAYLOAD ACTIVE UNKNOWN

§ Identity

Operator
Country
US
Launch date
2024-03-31
Launch site
AFETR
Launch vehicle
Mass (kg)
RCS (m²)

Purposes: comms

External: N2YO · Heavens-Above · Gunter

§ Orbital elements

Epoch: 2026-05-25T04:33:00.614016Z

Period
94.27 min
Inclination
43.0016°
Eccentricity
0.0001347
Mean motion
15.27579313 rev/d
Perigee alt
482.1 km
Apogee alt
484.0 km
Semi-major
6,861.2 km
B*
5.3055e-5
RAAN
187.7249°
Arg perigee
269.5815°
Mean anomaly
90.4882°
Rev number
12,176

§ Raw data

STARLINK-314191 59368U 24060W   26145.18959044  .00001198  00000+0  53055-4 0  99912 59368  43.0016 187.7249 0001347 269.5815  90.4882 15.27579313121767

JSON: /api/v1/satellites/59368 · /tle

For live sub-satellite position, see the globe view (requires WebGL).

§ Visibility from observer

Set your observer location to see the next 7 days of passes ≥ 10°. The values pass through the URL so the page stays shareable.

No JS? Fill the form by hand. The geolocation button needs JavaScript.